Location: Pradons
(44.4746°N, 4.3578°E)
Time: 19:30:25
(UTC+00:00)

BREEZE M DEB (TANK) - Pass Details

Date: 09 April 2020
Orbit: 313 x 13666 km, 49.6° (Epoch: 30 May)

Event Time Altitude Azimuth Distance (km) Brightness Sun altitude
Rises 20:38:07 0° 256° (WSW) 6,071 8.6 -22.9°
Reaches altitude 10° 20:43:48 10° 261° (W) 3,575 7.4 -23.7°
Maximum altitude 20:50:35 53° 338° (NNW) 732 3.6 -24.6°
Enters shadow 20:51:07 48° 13° (NNE) 726 3.5 -24.7°
